Location: Augirein
(42.9320°N, 0.9181°E)
Time: 14:38:49
(UTC+00:00)

Cosmos 1408 Rocket - Pass Details

Date: 20 June 2021
Orbit: 600 x 632 km, 82.6° (Epoch: 31 July)

Event Time Altitude Azimuth Distance (km) Brightness Sun altitude
Exits shadow 03:00:36 - 183° (S) 2,062 5.8 -11.4°
Reaches altitude 10° 03:00:46 10° 183° (S) 1,999 5.7 -11.4°
Maximum altitude 03:05:12 81° 97° (E) 644 3.7 -10.9°
Drops below altitude 10° 03:09:42 10° 10° (N) 2,023 7.1 -10.3°
Sets 03:11:57 0° 10° (N) 2,936 8.0 -10.0°
